EW5058 Weather Reports


Display with metric or nautical units.
time (UTC)temp
F
wind
direction
speed
MPH
gust
MPH
rain 1hr
in
rain 24hr
in
rain mn
in
humidity
%
barometer
mb
20260505074839 64 203 2.0 3.0 0.00 0.00 0.00 71 1011.9
20260505073819 64 180 3.0 5.0 0.00 0.00 0.00 71 1011.7
20260505072839 64 180 1.0 2.0 0.00 0.00 0.00 72 1011.6
20260505071819 64 180 1.0 3.0 0.00 0.00 0.00 72 1011.6
20260505070819 64 180 1.0 3.0 0.00 0.00 0.00 73 1011.7
20260505065820 64 180 1.0 3.0 0.00 0.00 0.00 72 1011.7
20260505064819 64 0.0 1.0 0.00 0.00 0.00 72 1011.7
20260505063819 64 180 4.0 9.0 0.00 0.00 0.00 72 1011.7
20260505062819 64 135 3.0 5.0 0.00 0.00 0.00 72 1011.7
20260505061819 64 180 2.0 6.0 0.00 0.00 0.00 72 1011.5
20260505060840 64 180 3.0 6.0 0.00 0.00 0.00 72 1011.6
20260505055819 64 180 3.0 5.0 0.00 0.00 0.00 73 1011.6
20260505054819 64 180 2.0 4.0 0.00 0.00 0.00 74 1011.6
20260505053819 64 158 2.0 5.0 0.00 0.00 0.00 76 1011.7
20260505052839 64 180 3.0 7.0 0.00 0.00 0.00 77 1011.7
20260505051819 64 113 2.0 7.0 0.00 0.00 0.00 78 1011.6
20260505050819 63 180 2.0 4.0 0.00 0.00 0.00 79 1011.6
20260505040818 63 203 2.0 6.0 0.00 0.00 0.00 79 1011.6
20260505035818 63 180 2.0 4.0 0.00 0.00 0.00 79 1011.5
20260505034818 63 180 1.0 2.0 0.00 0.00 0.00 78 1011.5
20260505033820 63 158 1.0 5.0 0.00 0.00 0.00 79 1011.5
20260505032820 63 158 3.0 5.0 0.00 0.00 0.00 80 1011.5
20260505031818 63 180 1.0 2.0 0.00 0.00 0.00 80 1011.4
20260505030818 63 158 2.0 4.0 0.00 0.00 0.00 79 1011.3
20260505025818 63 180 1.0 2.0 0.00 0.00 0.00 79 1011.4
20260505024818 63 158 1.0 3.0 0.00 0.00 0.00 78 1011.5
20260505023820 63 180 1.0 3.0 0.00 0.00 0.00 78 1011.5
20260505022818 64 180 2.0 4.0 0.00 0.00 0.00 77 1011.3
20260505021900 64 203 1.0 3.0 0.00 0.00 0.00 75 1011.4
20260505020820 64 158 1.0 3.0 0.00 0.00 0.00 74 1011.4
20260505015838 64 158 1.0 2.0 0.00 0.00 0.00 73 1011.5
20260505014820 65 180 2.0 6.0 0.00 0.00 0.00 72 1011.4
20260505013820 65 135 2.0 6.0 0.00 0.00 0.00 71 1011.4
20260505012820 65 180 3.0 7.0 0.00 0.00 0.00 71 1011.3
20260505011820 65 158 1.0 3.0 0.00 0.00 0.00 70 1011.2
20260505010820 66 0.0 2.0 0.00 0.00 0.00 68 1011.1
20260505005818 66 158 3.0 6.0 0.00 0.00 0.00 66 1011.0
20260505004820 66 158 2.0 4.0 0.00 0.00 0.00 63 1011.0
20260505003820 67 203 1.0 3.0 0.00 0.00 0.00 59 1011.0
20260505002820 67 203 2.0 4.0 0.00 0.00 0.00 56 1010.9
20260505001820 68 0.0 1.0 0.00 0.00 0.00 54 1010.8
20260505000840 68 180 1.0 2.0 0.00 0.00 0.00 53 1010.8
20260504235820 69 158 1.0 3.0 0.00 0.00 0.00 53 1010.8
20260504234820 69 180 1.0 2.0 0.00 0.00 0.00 52 1010.8
20260504233820 70 158 2.0 3.0 0.00 0.00 0.00 51 1010.8
20260504232820 70 203 2.0 6.0 0.00 0.00 0.00 51 1010.7
20260504231839 70 180 4.0 5.0 0.00 0.00 0.00 49 1010.6
20260504230819 71 113 3.0 4.0 0.00 0.00 0.00 49 1010.6
20260504225819 71 180 3.0 5.0 0.00 0.00 0.00 48 1010.6
20260504224840 71 180 3.0 8.0 0.00 0.00 0.00 47 1010.6
20260504223819 71 203 3.0 4.0 0.00 0.00 0.00 46 1010.5
20260504222819 72 203 4.0 7.0 0.00 0.00 0.00 44 1010.7
20260504221840 72 158 5.0 11.0 0.00 0.00 0.00 43 1010.7
20260504220840 72 180 3.0 7.0 0.00 0.00 0.00 44 1010.7
20260504215819 72 158 4.0 6.0 0.00 0.00 0.00 46 1010.7
20260504214819 72 158 3.0 7.0 0.00 0.00 0.00 47 1010.7
20260504213819 72 180 5.0 10.0 0.00 0.00 0.00 48 1010.9
20260504212819 72 158 6.0 9.0 0.00 0.00 0.00 49 1010.9
20260504211819 73 180 4.0 11.0 0.00 0.00 0.00 47 1010.9
20260504210839 72 180 3.0 5.0 0.00 0.00 0.00 48 1010.9
20260504205819 72 180 4.0 7.0 0.00 0.00 0.00 47 1010.9
20260504204819 73 180 5.0 12.0 0.00 0.00 0.00 46 1010.9
20260504203819 73 180 6.0 9.0 0.00 0.00 0.00 44 1010.9
20260504202819 74 203 6.0 16.0 0.00 0.00 0.00 39 1010.9
20260504201819 74 180 5.0 9.0 0.00 0.00 0.00 41 1011.2
20260504200819 75 180 2.0 5.0 0.00 0.00 0.00 39 1011.1
20260504195819 74 180 5.0 9.0 0.00 0.00 0.00 39 1011.4
20260504194819 76 180 6.0 12.0 0.00 0.00 0.00 38 1011.4
20260504193819 77 0.0 3.0 0.00 0.00 0.00 38 1011.6
20260504192819 76 158 2.0 4.0 0.00 0.00 0.00 38 1011.7
20260504191819 77 158 3.0 6.0 0.00 0.00 0.00 36 1011.9
20260504190819 77 248 3.0 9.0 0.00 0.00 0.00 34 1012.0
20260504185819 77 180 1.0 2.0 0.00 0.00 0.00 38 1012.1
20260504184819 76 0.0 1.0 0.00 0.00 0.00 36 1012.2
20260504183859 76 180 4.0 6.0 0.00 0.00 0.00 42 1012.4
20260504182819 75 248 1.0 14.0 0.00 0.00 0.00 43 1012.5
20260504181839 75 225 3.0 5.0 0.00 0.00 0.00 37 1012.7
20260504180819 76 180 3.0 5.0 0.00 0.00 0.00 40 1012.8
20260504175819 75 203 2.0 3.0 0.00 0.00 0.00 36 1013.0
20260504174819 76 158 4.0 6.0 0.00 0.00 0.00 37 1013.0
20260504173838 75 180 1.0 2.0 0.00 0.00 0.00 40 1013.1
20260504172819 74 180 2.0 5.0 0.00 0.00 0.00 39 1013.3
20260504171822 74 180 1.0 3.0 0.00 0.00 0.00 43 1013.3
20260504170818 73 180 2.0 3.0 0.00 0.00 0.00 43 1013.3
20260504150819 70 0.0 1.0 0.00 0.00 0.00 48 1014.6
20260504140818 65 248 2.0 4.0 0.00 0.00 0.00 55 1014.8
20260504130819 61 180 4.0 6.0 0.00 0.00 0.00 64 1015.3
20260504081819 55 0.0 2.0 0.00 0.00 0.00 78 1015.7
20260504080839 55 203 3.0 7.0 0.00 0.00 0.00 80 1015.8